Regional Weather Roundup
Issued by NWS

Home | Current Version | Previous Version | Graphics & Text | Print | Product List | Glossary On
Versions: 1 2 3 4 5 6 7 8 9 10 11 12 13 14 15 16 17 18 19 20 21 22 23 24 25 26 27 28 29 30 31 32 33 34 35 36 37 38 39 40 41 42 43 44 45 46 47 48 49 50
000
ASUS43 KFSD 021110
RWRSD

WEATHER ROUNDUP FOR SOUTH DAKOTA
NATIONAL WEATHER SERVICE SIOUX FALLS SD
600 AM CDT THU JUL 02 2015

NOTE: "FAIR" INDICATES FEW OR NO CLOUDS BELOW 12,000 FEET WITH NO
SIGNIFICANT WEATHER AND/OR OBSTRUCTIONS TO VISIBILITY.


SDZ001>005-009-010-012>017-021200-
NORTHWEST AND NORTH CENTRAL SOUTH DAKOTA

CITY           SKY/WX    TMP DP  RH WIND       PRES   REMARKS
BUFFALO          N/A     60  59  96 NW7       30.00R
FAITH            N/A     63  60  90 NW9       29.99R
MOBRIDGE       TSTM      64  63  96 SW3       29.93S
$$

SDZ012>016-024>037-041>051-057-063-072>074-021200-
SOUTHWEST AND SOUTH CENTRAL SOUTH DAKOTA

CITY           SKY/WX    TMP DP  RH WIND       PRES   REMARKS
RAPID CTY ARPT CLEAR     63  61  93 N15       30.04R
PIERRE         CLOUDY    67  66  97 E5        29.92R FOG
CUSTER         PTCLDY    54  51  90 W6        30.16R
ELLSWORTH AFB  PTCLDY    64  63  96 N12       30.04
PHILIP         PTCLDY    65  64  97 W8        29.96R
PINE RIDGE     MOCLDY    60  57  89 W5        30.04R
SPEARFISH      FAIR      57  55  94 W5        30.11S
WINNER         CLOUDY    69  65  86 S6        29.93R FOG
$$

SDZ004>011-016>023-039-040-021200-
NORTHEAST SOUTH DAKOTA

CITY           SKY/WX    TMP DP  RH WIND       PRES   REMARKS
ABERDEEN       MOCLDY    63  57  81 S8        29.96S
WATERTOWN      CLOUDY    58  54  86 SE6       29.99S
BROOKINGS      CLOUDY    57  52  82 SE7       30.02S
SISSETON         N/A     54  53  97 S5        29.98S
$$

SDZ017-020-022-023-036>040-048>070-021200-
SOUTHEAST SOUTH DAKOTA

CITY           SKY/WX    TMP DP  RH WIND       PRES   REMARKS
SIOUX FALLS    CLOUDY    59  53  80 SE6       30.00S
HURON          LGT RAIN  61  57  87 SE9       29.95S
MITCHELL       CLOUDY    61  58  90 SE8       29.96F
YANKTON        CLOUDY    59  54  82 E7        29.98R
$$

ABBREVIATIONS USED IN REMARKS
   TC - TEMPERATURE IN CELSIUS
  WCI - WIND CHILL INDEX
   HX - HEAT INDEX
  VSB - VISIBILITY




USA.gov is the U.S. government's official web portal to all federal, state and local government web resources and services.